Theta_e
315 316 317 318 318 318 318 318 318 317 316 317 318 319 319 320 320 319 318 317 316 315 315 315 316 318 318 319 320 320 321 320 320 320 320 320 320 322 323 324 325 326 326 326 326 326 325 325 326 326 326 325 325 324 323 322 322 323 323 323 323 323 323
311 312 314 316 317 317 317 318 318 318 317 316 316 317 318 319 319 319 318 316 315 315 315 315 317 318 319 319 319 319 320 321 321 321 321 321 321 322 323 324 325 325 326 326 326 326 325 324 325 325 326 325 323 322 321 321 321 321 321 321 321 321 322
310 311 313 315 315 316 317 319 320 320 320 318 317 316 316 317 317 318 318 316 315 315 315 316 318 319 319 318 318 318 319 321 321 322 322 322 322 322 323 324 324 324 325 325 325 325 325 325 324 325 326 325 323 321 321 321 320 319 319 319 320 320 320
310 311 312 313 315 317 318 320 321 321 320 320 319 318 317 316 315 317 317 315 314 315 316 317 318 319 319 318 317 317 317 319 321 322 322 323 323 323 323 323 323 324 324 325 325 324 325 324 325 325 325 324 323 321 320 320 320 319 318 317 318 318 319
310 311 312 313 315 317 319 320 321 321 321 320 320 319 318 317 315 315 316 315 314 315 316 317 318 318 319 318 318 317 316 318 320 321 322 323 323 324 324 323 323 324 324 324 324 324 325 324 324 324 324 324 322 321 320 320 320 319 318 316 316 315 316
309 310 311 313 315 316 318 320 321 321 320 320 319 319 318 317 315 315 315 315 315 316 318 318 318 319 319 319 318 317 316 316 317 318 320 322 322 323 323 323 322 322 323 324 324 324 324 324 323 323 324 323 322 321 320 320 320 319 318 316 314 313 312
310 309 309 311 313 315 317 320 320 320 319 319 319 318 317 316 315 315 315 315 316 318 319 319 319 319 319 318 318 317 316 315 316 316 317 319 321 322 322 322 321 321 321 322 323 324 323 323 324 323 323 323 322 321 321 320 319 318 317 315 314 313 310
310 309 309 309 311 314 317 318 318 318 318 318 317 316 315 314 314 315 315 315 316 318 319 319 319 319 319 318 317 316 315 314 315 315 315 317 319 321 322 322 321 320 319 319 321 323 323 323 323 323 323 322 321 321 320 320 319 318 317 315 314 312 308
311 309 308 308 310 313 315 316 317 318 318 316 315 313 312 312 313 315 315 314 315 318 319 319 319 318 318 318 316 315 314 313 313 314 315 316 318 319 320 321 320 320 319 318 320 322 323 322 323 323 322 321 321 320 320 319 318 317 316 315 314 311 306
312 309 308 308 309 312 313 315 316 317 316 315 313 312 311 311 313 315 315 313 314 317 318 318 318 318 318 317 316 315 313 312 312 313 315 315 317 318 319 320 319 319 318 318 319 322 322 322 323 322 322 321 320 320 320 319 318 316 315 315 314 310 304
312 310 308 308 309 311 313 314 316 316 315 314 314 313 311 311 314 315 314 313 314 316 317 317 317 317 317 316 315 314 312 311 311 313 314 315 316 316 318 319 318 318 317 316 317 320 321 322 322 322 321 321 320 320 320 319 318 317 316 314 313 309 303
312 311 309 308 309 311 313 315 315 315 315 314 314 313 312 312 313 315 314 314 314 315 316 316 316 316 316 314 313 312 311 310 310 312 313 314 315 315 315 316 317 317 316 314 314 317 320 320 320 321 321 321 321 320 319 319 318 317 316 314 312 308 303
313 312 310 309 310 312 313 315 315 315 315 315 314 314 313 313 313 314 314 313 314 315 315 315 315 314 313 311 311 310 309 310 310 310 311 312 313 313 312 313 314 314 314 313 313 315 317 319 319 319 319 319 320 320 319 319 318 316 315 314 311 307 304
313 313 311 310 310 312 313 315 315 316 315 315 315 314 313 313 314 314 314 313 314 314 315 314 313 312 309 308 309 309 308 308 309 308 309 309 309 309 309 309 311 312 312 312 312 312 313 316 317 319 318 318 318 320 319 319 317 315 314 313 311 307 304
312 313 312 310 311 312 313 314 316 316 316 315 315 314 312 313 314 314 314 313 314 314 314 313 311 309 307 305 306 307 306 306 307 306 306 306 306 307 307 307 309 311 310 310 310 308 308 309 311 315 316 316 317 319 319 317 315 314 312 311 311 308 305
310 312 312 311 311 312 313 314 315 316 316 315 315 313 311 312 313 314 314 313 313 313 313 311 309 307 304 303 303 303 303 303 303 303 303 304 304 305 306 306 307 308 308 308 307 305 303 303 306 310 313 315 317 319 318 314 312 311 310 309 310 308 305
309 312 312 311 311 312 313 313 314 315 316 315 314 312 310 310 311 313 313 312 312 312 311 310 309 305 302 301 300 300 300 300 300 300 300 301 301 302 303 304 304 305 306 306 304 302 301 304 308 313 315 317 318 317 314 311 309 308 308 308 308 308 307
310 311 312 311 311 312 312 313 313 315 315 314 312 310 309 309 310 311 312 311 310 310 310 310 309 304 300 301 299 298 299 299 299 299 299 299 299 300 301 301 301 302 303 303 303 302 302 307 312 315 316 316 315 313 311 309 307 306 306 306 306 307 307
313 310 311 311 310 312 312 311 312 313 314 313 310 309 308 308 309 310 310 309 309 310 310 310 308 304 301 300 299 298 299 298 298 298 298 298 298 298 299 299 299 300 301 302 303 302 303 308 312 314 313 313 311 310 309 307 306 304 304 305 305 306 307
318 311 311 311 310 311 312 311 311 312 312 311 309 307 307 308 308 309 308 308 308 310 310 309 308 305 301 300 299 298 298 298 298 298 298 298 298 298 298 298 298 298 299 301 303 302 302 306 309 310 310 310 308 307 306 305 304 303 303 304 304 305 306
322 314 311 310 310 312 312 311 311 311 311 310 308 307 306 307 308 307 306 306 307 308 309 309 309 306 301 300 300 299 298 298 297 297 297 297 297 297 297 297 297 297 298 300 302 302 302 303 304 305 306 306 304 303 303 302 302 301 301 302 302 303 304
325 318 312 310 311 312 312 311 310 310 310 310 308 306 305 305 305 305 305 305 306 307 308 308 309 306 301 300 300 299 298 297 297 296 297 296 296 296 296 296 296 296 296 298 301 302 302 302 302 302 302 302 302 301 301 300 300 300 300 300 300 301 302
326 322 315 310 310 311 311 311 311 311 310 310 308 306 303 302 303 303 303 304 305 306 307 308 308 305 301 299 300 299 298 297 296 296 296 296 296 296 296 296 296 296 296 297 300 302 302 302 301 301 301 301 301 301 300 300 300 300 300 300 300 300 301
326 324 319 313 310 311 310 311 311 311 310 310 309 307 303 301 301 301 303 303 304 305 306 307 306 303 300 299 299 299 299 298 296 296 296 296 296 295 295 295 295 295 295 296 297 299 300 301 301 300 301 300 300 300 299 299 298 298 298 299 299 298 299
325 325 322 316 312 311 311 310 310 311 310 310 310 308 305 302 301 301 302 303 304 304 305 305 304 301 299 299 299 299 299 298 297 296 296 295 295 295 295 295 295 295 295 295 295 296 297 298 298 298 298 298 298 297 296 296 295 295 296 297 296 296 297
325 324 323 320 315 312 311 311 311 310 311 311 310 309 306 303 301 301 302 303 303 303 304 305 303 300 298 299 299 299 299 298 297 297 296 295 295 295 295 295 295 294 294 294 294 294 294 295 295 295 295 295 295 295 294 294 294 294 294 294 294 294 295
325 324 323 322 319 315 313 311 311 311 311 311 311 310 308 304 302 301 301 302 303 302 303 304 303 300 298 298 299 299 299 298 298 298 297 295 295 295 295 295 295 295 294 294 294 294 294 294 294 294 294 294 294 294 294 294 294 294 294 293 293 293 293
325 324 324 323 321 319 315 313 312 312 312 311 311 311 309 306 302 301 302 302 302 302 302 303 303 301 298 298 299 300 299 299 298 297 297 296 295 295 295 295 295 294 294 294 294 294 294 294 294 294 294 294 294 294 293 294 293 293 294 293 293 293 293
324 324 324 323 322 320 318 316 315 314 313 312 311 310 310 308 305 302 302 302 302 302 302 302 303 301 299 298 299 299 299 299 298 297 297 296 295 295 295 295 295 294 294 294 294 294 294 294 294 293 293 293 293 293 293 293 293 293 293 293 293 293 293
324 324 324 323 323 321 320 319 317 317 317 315 314 311 310 309 307 303 301 302 302 302 302 302 302 301 299 298 298 299 299 299 298 298 297 296 295 295 295 295 294 294 294 294 294 294 294 294 294 293 293 293 293 293 293 293 293 293 293 292 292 292 292
324 324 324 323 323 322 321 320 319 319 319 318 317 314 311 310 308 305 302 301 302 302 301 301 301 301 299 298 298 298 299 299 298 298 297 296 296 295 295 295 294 294 294 293 294 294 294 294 294 293 292 292 292 293 293 292 292 292 292 292 292 292 292
324 324 323 323 323 322 321 320 319 318 319 319 319 317 314 311 310 308 304 302 301 302 301 301 301 300 300 299 298 298 298 299 298 298 297 296 296 295 295 295 295 294 294 293 293 293 294 294 294 294 293 292 292 293 293 293 293 292 292 292 292 292 292
324 324 323 323 323 322 320 320 319 317 318 319 319 318 317 314 311 310 307 304 302 301 301 301 301 300 300 299 298 298 298 298 298 297 297 296 296 296 295 294 295 294 293 293 293 293 293 293 294 294 294 293 293 293 293 293 294 293 293 292 292 292 292
325 324 323 322 322 322 321 321 320 319 318 318 318 318 319 317 313 311 310 307 303 301 301 302 301 301 300 300 299 298 298 298 297 297 297 296 297 297 296 294 295 294 293 293 293 293 293 293 293 294 294 293 293 293 293 293 294 294 294 293 292 292 292
325 325 324 323 322 322 321 321 321 320 320 319 318 318 319 318 315 313 312 310 307 303 301 301 301 301 300 300 299 299 298 298 297 297 297 296 297 298 297 295 294 294 294 293 293 293 292 292 293 293 294 294 293 293 293 292 293 295 294 293 292 292 292
324 324 324 323 322 322 322 321 321 321 321 320 320 319 319 320 318 314 313 312 310 306 303 301 302 302 301 300 300 299 298 298 297 297 296 296 297 298 298 297 295 294 294 293 293 293 292 292 292 292 293 293 293 293 293 292 293 294 294 293 292 291 291
323 323 324 323 323 322 322 321 321 321 321 321 320 319 318 319 319 317 315 313 312 310 306 303 302 301 301 301 300 300 299 298 297 297 296 296 297 298 298 297 295 294 294 293 293 292 292 292 292 292 292 292 293 293 292 292 293 294 294 293 292 291 291
Wind_Speed
11 11 11 12 12 12 12 11 12 12 13 13 12 11 11 10 10 10 10 10 10 10 10 10 10 10 10 10 10 9 8 6 6 7 7 7 7 6 8 8 8 7 6 7 8 8 8 7 6 5 3 2 1 1 3 4 5 6 7 7 7 8 8
11 11 11 11 12 13 13 12 13 14 15 16 14 13 12 12 11 12 12 12 11 10 10 10 11 11 11 11 10 10 9 7 6 6 6 7 7 7 7 8 8 8 7 8 9 10 10 9 9 8 7 4 1 4 4 4 6 7 8 8 7 8 8
9 9 10 11 12 12 12 12 13 14 16 17 17 16 15 14 13 13 13 13 12 11 10 11 11 12 12 12 12 11 10 9 8 6 6 6 7 7 7 8 9 9 7 5 6 9 9 6 7 10 9 5 3 7 6 4 6 7 8 8 7 7 9
8 8 9 10 11 11 11 12 12 14 15 17 17 17 17 16 15 13 12 12 12 11 10 10 11 12 12 12 12 13 12 11 9 8 7 6 7 7 7 8 8 9 8 7 6 8 10 8 7 11 11 7 5 7 9 8 5 7 8 8 8 8 9
8 8 9 9 10 10 11 11 12 13 14 16 16 16 17 17 15 13 12 12 12 10 9 10 11 11 12 11 11 12 12 12 10 9 8 7 7 8 8 8 8 9 9 8 7 7 9 9 8 12 14 11 9 8 8 8 5 6 8 9 12 12 10
10 8 9 9 10 10 10 10 11 13 14 15 16 16 16 16 14 13 12 12 11 9 8 9 10 11 11 11 11 11 12 12 11 10 8 7 7 7 8 8 9 9 8 8 7 8 7 6 8 12 13 10 9 11 8 5 5 6 7 9 12 13 12
11 8 8 9 10 10 9 10 11 13 14 15 16 16 16 15 14 12 11 10 9 8 8 9 10 10 10 10 11 11 12 11 11 11 9 7 6 7 7 7 8 8 8 8 7 7 6 3 7 11 11 10 10 11 5 2 4 5 5 8 11 12 13
11 9 8 9 9 9 9 10 12 13 14 16 16 17 16 14 12 11 10 9 8 8 8 9 10 10 11 11 12 13 13 12 11 10 10 8 6 6 7 7 7 8 8 8 7 6 5 2 5 8 9 10 10 8 3 1 1 2 3 5 7 10 12
12 9 7 8 9 9 10 11 12 13 14 15 16 17 16 13 10 9 9 9 8 8 9 9 10 11 11 12 13 14 14 13 11 10 9 8 7 7 7 7 8 7 7 8 7 6 5 3 4 6 9 9 7 7 8 6 3 2 2 2 4 7 10
12 10 8 8 9 9 10 11 12 12 13 14 14 16 15 10 8 9 9 9 8 7 8 9 11 12 12 13 13 14 14 12 10 8 7 6 7 7 8 8 8 8 7 7 6 5 6 6 4 4 8 10 6 4 7 10 7 6 5 2 3 6 8
12 11 9 8 9 9 9 10 11 11 12 13 14 15 14 9 8 8 9 9 8 7 8 10 11 12 13 13 14 14 12 10 8 7 6 6 6 7 8 9 9 8 8 7 6 4 5 6 5 4 5 8 6 4 4 6 9 9 7 4 3 5 7
13 12 9 9 9 9 9 9 10 11 12 12 13 14 13 10 8 8 9 9 8 8 9 11 12 13 14 14 14 12 10 9 8 7 6 6 6 6 7 8 8 8 8 8 6 4 4 5 5 4 3 4 5 4 5 5 5 9 8 5 4 6 7
14 13 10 9 9 9 9 9 10 11 12 12 13 14 12 11 9 9 9 9 8 9 10 11 12 14 14 13 11 9 8 8 7 6 6 5 5 6 6 7 7 7 8 8 6 4 4 4 5 5 4 3 4 5 5 6 4 8 10 6 5 7 7
14 14 11 9 9 9 9 9 10 10 11 12 13 13 12 10 10 10 10 10 9 9 10 12 13 14 14 12 9 8 8 7 6 5 5 5 5 5 5 5 5 6 7 7 6 5 4 5 6 6 7 5 4 6 5 5 6 7 10 8 7 8 8
16 15 12 10 9 9 9 9 10 10 11 12 13 14 12 10 10 10 11 11 10 10 11 13 14 15 14 11 8 8 8 7 6 6 5 5 5 4 5 5 5 6 7 7 6 5 5 5 5 7 8 7 6 6 5 4 6 7 9 11 10 9 8
17 15 13 10 9 9 8 9 10 10 11 12 14 14 12 10 10 11 11 11 11 10 11 13 15 15 13 11 9 8 8 8 7 6 6 6 5 4 4 4 4 5 6 6 6 5 5 4 3 4 6 6 5 5 5 3 4 5 8 10 11 10 8
18 16 14 11 9 9 8 9 10 10 11 13 14 14 12 9 9 10 11 12 11 10 11 13 15 15 13 10 9 8 8 8 7 6 6 6 5 5 5 5 4 5 6 6 6 5 4 2 1 1 2 3 3 4 4 2 3 3 5 8 10 10 8
18 17 14 11 10 10 9 8 10 10 11 13 14 14 11 9 9 10 11 11 10 10 10 12 15 15 12 10 8 7 6 6 5 5 4 5 5 4 5 5 5 5 5 5 5 5 5 4 4 3 3 3 3 3 3 2 2 3 3 6 8 9 8
17 16 15 12 11 10 9 9 10 10 11 12 13 12 10 9 9 10 10 10 10 9 9 12 14 14 11 9 7 6 5 4 4 5 4 4 3 3 4 4 4 4 4 3 4 5 5 5 4 3 2 1 2 3 3 3 3 3 3 5 7 8 8
16 16 15 13 11 11 10 10 10 11 11 12 12 11 10 8 8 9 9 9 8 8 9 11 14 14 11 8 6 5 4 4 5 5 5 4 4 3 3 3 3 3 3 2 3 4 4 4 2 1 1 2 2 3 3 3 3 3 3 4 6 7 9
16 15 16 14 12 12 11 10 11 11 11 11 10 10 9 8 8 8 8 8 7 7 9 11 13 13 10 7 6 5 4 4 4 5 5 5 4 4 3 3 3 3 2 1 1 2 3 3 2 0 2 2 1 2 3 3 3 3 3 4 6 7 9
16 16 17 16 14 13 12 11 11 12 12 10 9 9 9 8 8 8 8 7 7 7 8 11 12 12 9 7 6 5 4 4 4 4 4 5 5 5 4 3 3 3 2 1 1 1 2 2 2 1 0 1 0 2 2 3 3 3 4 5 6 7 9
17 17 17 17 16 14 14 12 12 13 13 11 9 8 8 8 7 7 8 8 7 7 8 10 11 11 9 6 5 5 4 4 3 4 4 5 5 5 5 5 4 3 2 1 1 1 2 2 1 1 1 1 2 3 3 4 4 5 5 6 6 7 8
19 18 17 18 17 16 15 14 13 14 14 12 9 8 7 6 6 6 7 7 6 7 8 9 10 9 8 6 5 4 4 3 3 4 4 5 5 5 6 6 5 4 3 2 0 1 1 2 2 2 3 3 4 5 5 6 6 6 6 6 7 7 8
19 17 17 19 19 18 16 15 15 15 15 13 10 9 7 6 5 5 6 6 5 6 7 8 8 8 7 6 5 4 4 3 3 3 3 4 4 4 4 5 5 5 4 3 2 1 1 2 2 3 4 5 5 6 5 5 5 5 5 5 5 7 8
18 17 17 18 19 19 19 17 16 16 15 14 12 10 8 7 6 6 6 5 5 5 6 7 7 7 7 6 5 4 3 3 2 2 2 2 2 2 2 3 4 4 3 3 3 2 2 2 2 3 4 4 4 4 3 3 3 4 4 4 3 5 7
18 17 17 18 19 20 20 19 18 17 16 15 14 12 10 8 7 6 6 6 5 6 6 6 7 7 7 7 6 5 3 2 2 2 1 0 0 0 1 1 2 3 2 2 2 2 2 1 1 2 2 2 2 2 2 2 2 3 3 4 4 4 5
20 20 19 19 20 20 20 20 19 18 17 16 15 14 12 10 8 7 8 7 6 6 6 7 7 7 7 8 7 6 5 3 1 1 1 1 2 2 2 1 1 1 2 2 2 2 2 2 2 2 2 2 1 0 0 1 2 2 3 3 3 3 4
21 22 22 22 22 21 21 21 20 19 18 17 16 16 15 13 10 9 9 9 8 7 7 7 8 7 8 8 8 8 6 4 3 1 0 1 2 3 3 2 1 0 1 2 2 2 2 3 4 5 4 3 2 2 2 2 2 3 3 3 3 2 2
21 23 24 25 24 23 22 20 20 19 18 17 17 17 16 14 12 10 10 10 9 8 8 8 8 8 8 9 9 9 8 6 5 2 1 2 3 3 3 3 2 1 1 2 2 2 2 3 5 5 4 3 3 3 3 3 3 3 3 2 2 2 2
20 23 25 25 26 27 25 23 22 20 18 17 17 17 16 15 14 12 11 11 10 10 9 9 9 9 9 9 9 9 9 8 7 5 3 3 3 4 4 4 3 2 1 1 2 1 1 3 5 5 4 4 4 4 4 4 4 3 3 2 1 1 1
18 21 23 25 28 28 26 25 23 20 19 19 18 18 18 17 16 15 13 12 12 11 11 11 11 11 10 10 10 10 10 9 8 7 5 4 4 5 5 5 5 4 3 1 1 1 1 3 4 4 4 4 4 4 5 5 4 3 3 2 2 1 1
16 18 20 22 26 26 25 24 22 18 17 17 17 19 20 19 19 17 14 14 14 13 13 13 12 11 11 11 11 11 11 10 9 8 6 5 5 5 6 6 6 5 4 3 2 1 1 1 3 4 4 4 4 4 4 3 3 2 2 2 2 2 1
15 16 17 19 23 24 25 25 24 21 20 19 18 20 20 20 20 19 16 15 15 14 14 14 14 13 12 12 12 12 12 10 9 8 7 7 6 6 6 7 7 6 6 5 4 3 2 1 1 3 3 3 3 2 2 2 1 1 1 1 1 1 2
16 16 17 19 20 21 23 24 25 26 26 24 22 21 20 20 21 21 19 17 17 16 16 15 16 15 14 13 13 13 12 11 10 10 9 9 7 6 6 7 8 8 7 7 6 5 3 3 2 2 2 1 0 1 1 2 1 1 1 1 1 1 3
16 17 18 19 20 21 22 23 24 26 28 29 27 24 21 21 22 22 21 20 19 17 17 17 18 17 16 15 14 13 13 12 12 11 11 10 8 6 6 8 9 10 9 9 8 7 5 4 3 2 2 2 1 1 2 1 1 0 0 1 1 2 3
17 17 18 19 21 22 22 22 24 25 27 31 30 26 23 23 24 23 23 23 22 20 19 18 19 19 18 17 16 15 14 14 13 13 12 10 9 8 8 8 9 10 11 11 10 9 7 6 5 4 3 3 3 3 2 2 2 2 1 1 2 3 4
Wind_Direction
315 318 319 324 329 333 336 339 342 343 344 345 343 340 339 341 345 346 345 346 347 348 349 348 348 352 354 355 356 355 354 349 335 325 321 314 306 297 291 288 287 285 269 241 235 238 222 187 151 132 148 185 206 12 17 24 26 24 23 21 18 16 22
310 315 320 324 327 330 334 337 340 344 349 352 350 348 345 343 342 343 343 342 343 344 346 346 348 352 357 1 2 2 2 3 355 339 330 323 316 311 302 297 294 287 266 238 227 233 228 195 165 153 152 162 110 39 25 19 21 24 27 27 27 28 32
307 316 320 320 321 326 331 332 336 340 344 347 350 353 352 348 343 339 338 338 337 339 343 347 349 352 358 1 1 1 2 7 9 2 349 338 329 321 310 303 298 294 294 277 239 226 225 206 173 166 170 181 128 86 80 53 14 22 35 32 32 40 42
308 315 316 314 315 320 324 326 331 336 337 339 343 347 348 348 344 338 334 332 330 333 340 345 347 350 358 3 360 358 358 1 7 8 5 357 344 334 322 312 305 303 306 305 278 241 227 217 185 172 175 177 146 111 98 85 34 7 26 39 44 45 43
307 310 311 310 311 314 318 321 326 331 333 335 337 339 341 343 343 338 332 327 327 331 339 344 346 348 355 1 0 360 360 358 357 358 3 3 351 339 332 325 317 312 308 305 300 270 236 223 210 186 169 152 133 120 102 88 59 360 5 35 48 49 45
306 309 310 308 307 309 314 318 322 328 331 331 332 334 336 339 339 335 327 324 327 335 342 343 344 347 353 358 358 1 1 357 353 348 349 355 350 339 335 331 325 321 317 309 297 280 259 230 218 197 172 160 143 128 111 77 50 9 6 32 43 46 47
304 311 314 309 306 308 314 318 321 327 329 328 329 331 333 335 334 328 323 324 331 340 344 342 342 345 350 352 352 355 357 354 350 346 341 341 341 334 332 334 335 335 330 319 300 288 288 249 224 209 183 173 157 138 123 69 32 358 12 43 40 40 45
305 315 318 312 309 311 314 317 321 326 328 328 331 333 333 332 328 320 318 325 334 340 341 340 339 341 344 348 349 350 350 348 345 341 337 332 328 324 324 328 333 339 339 332 316 304 308 279 245 234 209 188 164 153 173 188 30 335 22 43 34 36 44
303 313 319 313 310 311 314 319 324 326 328 330 336 339 338 333 324 315 315 324 333 341 342 340 338 338 341 344 346 347 346 343 342 338 333 326 321 319 319 322 329 336 343 343 330 319 319 305 266 238 222 213 188 173 175 160 144 158 121 40 19 41 48
299 309 318 315 310 311 316 323 327 328 331 334 339 345 346 337 322 314 317 326 334 345 347 342 338 335 336 338 339 342 343 344 347 348 343 330 318 315 315 319 327 335 342 346 338 322 320 317 291 236 218 218 228 225 183 163 153 158 145 105 32 51 63
294 304 313 315 310 312 319 326 329 330 334 336 340 349 351 338 319 314 323 333 339 348 347 339 337 333 331 334 337 339 345 351 360 6 4 348 328 316 313 313 318 326 332 339 341 321 308 313 302 274 243 230 239 277 249 190 167 167 161 130 85 78 88
286 296 306 312 309 311 318 326 332 334 335 336 340 350 350 336 316 312 326 338 342 343 340 337 336 333 331 334 335 339 348 357 4 10 6 353 336 322 314 309 310 319 327 334 342 333 304 304 303 303 299 257 245 263 283 270 197 180 185 172 127 111 107
278 289 299 306 305 308 316 325 334 335 333 334 339 345 346 336 319 312 322 334 337 336 336 337 334 332 334 335 336 342 349 353 357 0 358 344 330 322 315 314 316 320 327 332 339 338 310 294 295 299 303 292 269 255 262 286 255 191 185 187 158 137 128
270 280 291 297 299 305 314 324 332 333 330 331 335 339 340 332 321 313 317 326 332 332 333 334 333 335 340 342 343 345 343 343 343 342 342 334 324 322 320 322 326 323 325 328 331 336 318 285 269 272 278 277 266 253 250 274 265 204 177 176 172 157 147
262 271 282 288 292 300 312 323 328 329 327 326 330 334 332 324 314 309 312 321 327 328 329 332 336 339 344 344 341 338 332 328 326 321 320 320 318 319 319 320 322 320 321 323 324 331 330 303 266 253 259 258 246 239 234 249 261 230 191 179 178 173 163
257 264 274 279 285 294 306 319 325 326 325 323 326 329 327 316 305 300 305 314 319 322 328 336 342 343 343 343 336 328 323 318 315 312 308 307 308 307 305 305 309 313 315 317 320 325 333 323 276 238 237 236 225 210 206 231 275 256 213 190 182 183 177
253 256 265 270 278 289 299 312 321 323 322 322 323 326 323 313 300 295 299 308 314 321 331 340 345 344 344 345 337 326 320 318 315 313 307 303 302 299 294 293 297 304 309 313 325 345 359 11 82 133 176 185 173 173 189 226 310 297 238 210 193 188 187
253 252 258 262 268 282 295 307 315 319 320 321 322 322 319 307 297 294 298 307 313 323 335 340 344 347 347 347 344 334 329 332 335 334 323 313 307 301 297 295 296 301 308 320 343 12 33 55 77 91 113 135 148 176 211 244 297 320 271 232 210 197 193
256 250 253 257 261 274 291 301 309 314 316 319 321 318 313 301 291 290 296 303 310 321 331 335 342 348 350 351 354 352 351 4 13 7 356 341 328 316 309 305 307 312 312 330 5 31 48 58 74 93 113 151 183 217 262 276 274 298 274 235 224 212 202
261 251 250 252 256 266 281 292 301 308 312 317 318 312 307 296 284 284 290 295 303 315 324 329 338 347 353 360 9 10 10 24 31 23 12 2 352 342 333 326 328 329 321 333 19 49 63 67 82 135 216 240 244 261 285 288 282 287 266 239 231 222 210
262 252 247 248 252 261 272 282 292 300 306 314 313 306 301 291 279 278 281 287 298 311 318 324 333 343 351 3 15 21 18 21 36 36 22 13 3 352 350 347 341 335 325 330 37 75 85 92 100 239 253 239 267 306 306 301 296 286 270 256 241 227 215
258 251 244 243 247 255 265 273 283 292 300 308 307 302 296 284 274 271 272 282 296 307 314 320 328 337 345 357 10 21 25 19 31 40 33 27 21 12 6 2 354 345 333 310 149 118 112 116 105 77 89 176 34 338 319 311 300 284 278 267 248 231 219
253 250 244 242 244 250 258 264 274 284 292 300 301 300 296 283 269 268 271 281 294 303 309 316 324 332 338 347 2 16 27 21 17 27 35 36 33 28 24 17 8 359 354 353 186 168 159 173 155 121 177 217 259 291 298 300 291 282 277 269 255 240 226
250 250 246 244 243 246 253 258 265 275 284 292 295 294 293 281 264 265 273 279 291 302 308 314 321 325 328 337 352 8 18 18 11 13 26 36 36 36 34 30 25 18 17 30 57 208 219 241 252 256 260 268 280 287 291 289 280 273 268 263 254 243 233
248 248 246 244 243 245 250 253 258 266 275 284 288 287 288 283 265 260 269 274 284 298 305 311 316 317 317 322 334 352 5 9 11 5 11 30 39 39 42 45 42 36 31 40 51 38 338 296 288 286 284 284 287 288 286 278 263 247 238 239 243 240 232
244 245 246 245 245 245 246 249 253 260 269 277 282 282 283 284 271 260 262 267 272 285 295 302 308 309 304 305 312 327 343 358 10 6 3 28 34 31 41 48 41 39 40 43 51 51 33 359 321 303 294 287 288 286 277 263 244 225 202 187 205 233 231
240 239 241 244 246 247 245 247 250 255 261 268 275 281 283 282 275 261 255 258 262 271 282 289 296 299 293 290 293 299 306 331 14 28 41 145 220 296 338 12 22 36 44 37 41 56 54 32 356 327 314 304 304 293 264 219 203 209 192 166 166 205 226
239 237 238 240 244 246 246 245 246 250 255 262 271 279 281 279 273 261 252 251 254 262 271 278 284 287 283 279 276 278 284 295 328 47 68 209 222 240 260 282 338 32 48 39 41 59 70 69 58 39 21 2 352 320 198 156 151 154 151 143 145 168 206
243 240 239 240 241 243 244 243 243 245 251 258 264 270 276 278 276 266 256 250 249 253 259 267 273 275 272 269 267 266 270 275 272 252 160 222 231 242 248 243 234 218 60 56 60 66 76 79 69 58 45 38 52 77 85 100 108 107 105 107 113 133 173
252 246 243 242 241 240 240 240 239 241 246 253 259 266 274 278 277 268 259 252 248 247 251 258 264 265 261 260 262 262 263 267 270 266 239 225 235 244 240 220 210 198 117 79 74 69 75 82 74 65 58 55 62 71 71 74 78 80 84 88 95 111 145
264 256 250 247 245 242 240 240 239 239 245 253 260 265 271 276 274 268 261 255 250 245 246 252 256 256 254 254 256 257 258 261 263 263 260 245 238 241 236 222 215 206 178 115 85 66 65 85 83 75 70 67 65 68 68 68 71 75 75 70 75 106 141
272 266 259 256 253 249 247 248 246 246 250 257 262 264 266 269 271 268 262 256 252 247 245 248 252 252 249 247 249 252 252 254 255 257 262 262 249 244 238 230 222 213 201 176 131 90 62 84 88 80 78 81 77 70 67 66 67 67 66 58 51 74 120
275 272 268 264 260 254 250 249 247 245 247 253 260 263 263 263 265 266 263 256 252 249 247 248 250 250 246 243 244 246 247 250 251 251 257 263 257 249 242 235 227 217 210 204 184 161 112 95 95 88 89 98 96 86 74 66 54 41 41 46 45 60 115
276 274 272 268 264 259 255 251 246 241 240 248 256 257 257 259 259 259 260 257 252 249 247 247 250 250 246 242 240 241 243 246 246 247 250 254 251 248 243 237 229 220 214 210 204 195 183 174 124 104 104 109 107 93 73 55 36 12 3 4 35 64 125
278 274 270 265 263 262 260 257 252 245 241 246 251 250 250 253 254 254 256 255 252 249 245 244 248 249 247 243 240 239 241 240 238 239 242 243 242 245 247 238 227 221 217 213 212 206 196 199 193 147 134 141 143 17 15 13 6 359 305 263 264 115 134
283 276 270 265 261 260 259 258 255 249 243 244 248 248 249 249 248 249 252 252 251 250 245 242 244 246 247 245 241 238 237 236 233 233 236 239 237 237 243 238 227 220 215 211 212 211 209 209 208 198 200 214 247 286 312 317 290 250 250 240 215 161 134
287 281 277 271 264 261 258 255 254 251 247 245 246 246 246 248 246 245 248 251 250 250 248 245 243 243 246 246 243 239 235 232 231 231 232 233 229 228 234 235 229 224 218 213 211 211 211 214 213 215 225 235 245 259 267 261 240 225 233 227 202 167 141